TimePDT,TemperatureF,Dew PointF,Humidity,Sea Level PressureIn,VisibilityMPH,Wind Direction,Wind SpeedMPH,Gust SpeedMPH,PrecipitationIn,Events,Conditions,WindDirDegrees,DateUTC
12:56 AM,45.0,23.0,42,29.98,10.0,North,11.5,-,N/A,,Clear,360,2013-09-27 07:56:00
1:56 AM,43.0,24.1,47,30.01,10.0,North,9.2,-,N/A,,Clear,360,2013-09-27 08:56:00
2:56 AM,42.1,24.1,49,30.02,10.0,North,10.4,-,N/A,,Clear,10,2013-09-27 09:56:00
3:56 AM,39.9,24.1,53,30.03,10.0,North,9.2,-,N/A,,Clear,10,2013-09-27 10:56:00
4:56 AM,42.1,24.1,49,30.04,10.0,North,10.4,-,N/A,,Clear,350,2013-09-27 11:56:00
5:56 AM,41.0,23.0,49,30.07,10.0,NNW,8.1,-,N/A,,Clear,330,2013-09-27 12:56:00
6:56 AM,35.1,23.0,61,30.11,10.0,NW,5.8,-,N/A,,Clear,310,2013-09-27 13:56:00
7:56 AM,46.0,25.0,44,30.11,10.0,NNW,9.2,-,N/A,,Clear,330,2013-09-27 14:56:00
8:56 AM,53.1,26.1,35,30.11,10.0,North,9.2,-,N/A,,Clear,360,2013-09-27 15:56:00
9:56 AM,55.9,24.1,29,30.11,10.0,NNW,6.9,-,N/A,,Clear,340,2013-09-27 16:56:00
10:56 AM,57.9,24.1,27,30.10,10.0,NW,6.9,-,N/A,,Clear,320,2013-09-27 17:56:00
11:56 AM,60.1,24.1,25,30.08,10.0,North,5.8,-,N/A,,Clear,350,2013-09-27 18:56:00
12:56 PM,63.0,23.0,22,30.06,10.0,NW,5.8,-,N/A,,Clear,310,2013-09-27 19:56:00
1:56 PM,66.0,19.9,17,30.03,10.0,Variable,4.6,-,N/A,,Clear,0,2013-09-27 20:56:00
2:56 PM,68.0,19.0,15,30.01,10.0,NW,4.6,-,N/A,,Clear,310,2013-09-27 21:56:00
3:56 PM,68.0,18.0,15,29.99,10.0,Variable,5.8,-,N/A,,Clear,0,2013-09-27 22:56:00
4:56 PM,70.0,16.0,13,29.98,10.0,SSE,3.5,-,N/A,,Clear,160,2013-09-27 23:56:00
5:56 PM,68.0,14.0,12,29.99,10.0,Calm,Calm,-,N/A,,Clear,0,2013-09-28 00:56:00
6:56 PM,60.1,19.0,20,30.03,10.0,Calm,Calm,-,N/A,,Clear,0,2013-09-28 01:56:00
7:56 PM,57.9,18.0,21,30.04,10.0,SSE,8.1,-,N/A,,Clear,160,2013-09-28 02:56:00
8:56 PM,59.0,18.0,20,30.05,10.0,South,6.9,-,N/A,,Clear,170,2013-09-28 03:56:00
9:56 PM,55.9,18.0,23,30.06,10.0,Calm,Calm,-,N/A,,Clear,0,2013-09-28 04:56:00
10:56 PM,44.1,18.0,35,30.10,10.0,NNW,5.8,-,N/A,,Clear,340,2013-09-28 05:56:00
11:56 PM,44.1,18.0,35,30.10,10.0,WNW,4.6,-,N/A,,Clear,290,2013-09-28 06:56:00